Location: San Salvatore
(39.9172°N, 8.4525°E)
Time: 14:21:31
(UTC+00:00)

Daily predictions for brighter satellites

Satellite Brightness Start Highest point End
(mag) Time Altitude Azimuth Time Altitude Azimuth Time Altitude Azimuth
CZ-4B R/B 3.4 19:18:48 10° SSE 19:24:17 84° WSW 19:29:55 10° NNW
MOS 1-B 4.4 19:18:45 10° SSE 19:24:32 78° ENE 19:30:21 10° NNW
Cosmos 2221 Rocket 3.6 19:22:33 10° S 19:26:52 62° E 19:31:13 10° NNE
Cosmos 405 Rocket 4.0 19:23:54 10° NNW 19:27:20 39° W 19:30:41 10° SSW
Cosmos 2098 Rocket 2.7 19:26:48 10° N 19:31:02 86° E 19:34:29 10° S
ATLAS CENTAUR R/B 3.6 19:30:07 10° NNE 19:32:09 13° NE 19:34:14 10° ENE
GP-B 3.8 19:28:17 10° NNE 19:32:22 36° E 19:36:25 10° SSE
Okean 1 Rocket 3.6 19:30:23 10° N 19:34:39 42° ENE 19:38:52 10° SSE
DELTA 2 DEB (DPAF) 3.9 19:30:56 10° NNE 19:35:08 72° ESE 19:39:18 10° S
Cosmos 923 Rocket 4.2 19:30:09 10° NNW 19:35:21 74° WSW 19:40:30 10° S
Cosmos 1674 Rocket 3.5 19:32:03 10° S 19:36:20 90° E 19:40:39 10° N
CARTOSAT-1 3.9 19:32:15 10° S 19:36:28 65° W 19:40:43 10° NNW
NOSS 2-2 (D) 3.5 19:34:00 10° S 19:37:15 33° ESE 19:40:08 10° NE
Lacrosse 5 2.5 19:32:52 10° SW 19:37:52 63° NW 19:42:54 10° NE
Sich 1 Rocket 3.6 19:33:33 10° N 19:38:00 73° E 19:42:28 10° SSE
Cosmos 1025 Rocket 3.6 19:35:35 10° SSE 19:39:29 37° E 19:43:24 10° NNE
Cosmos 2184 Rocket 4.4 19:34:18 10° SSE 19:40:20 47° E 19:46:21 10° NNE
ERS-1 Rocket 4.1 19:38:10 10° ESE 19:42:19 27° ENE 19:46:29 10° N
ATLAS 5 CENTAUR R/B 2.2 19:40:09 10° SW 19:43:16 44° NW 19:46:38 10° NNE
Cosmos 1943 3.5 19:37:44 10° NNW 19:43:19 66° WSW 19:48:53 10° S
Cosmos 1844 Rocket 2.8 19:41:55 10° SSW 19:47:29 83° WNW 19:53:05 10° NNE
Resurs 01 Rocket 2.8 19:47:37 10° S 19:51:46 42° W 19:55:57 10° NNW
SWAS 4.3 19:47:59 10° SSW 19:52:08 68° ESE 19:56:19 10° NNE
MetOp-B 4.4 19:50:10 11° SSE 19:55:17 56° ENE 20:00:32 10° N
CZ-4 R/B 4.0 19:53:29 10° SW 19:56:19 18° W 19:59:10 10° NW
Okean O Rocket 2.3 19:54:58 10° S 19:59:10 52° W 20:03:23 10° NNW
Okean 2 Rocket 3.5 19:54:43 10° NNW 19:59:11 63° W 20:03:35 10° S
Cosmos 2151 Rocket 4.3 19:56:10 10° NNW 20:00:29 54° W 20:04:49 10° S
MOS 1 4.3 19:55:43 10° SSE 20:01:20 79° ENE 20:07:01 10° N
IRS-1C Rocket 4.4 19:57:20 14° SE 20:01:44 50° ENE 20:06:49 10° N
PSLV R/B 4.5 20:00:22 10° S 20:03:44 46° W 20:07:11 10° NNW
Cosmos 2154 Rocket 4.1 19:58:21 10° S 20:04:32 60° E 20:10:47 10° NNE
Cosmos 1680 Rocket 4.2 20:00:26 10° NNW 20:05:32 53° WSW 20:10:38 10° S
Cosmos 2074 Rocket 4.0 19:59:53 10° S 20:06:06 79° E 20:12:23 10° N
Cosmos 1603 4.0 20:03:27 10° NNW 20:09:07 67° WSW 20:14:23 12° S
Ariane Rocket 3.9 20:07:17 17° ESE 20:10:28 32° ENE 20:14:57 10° N
SPOT 5 2.9 20:10:07 13° SSE 20:14:26 88° ENE 20:19:33 10° NNW
MOS 1 Rocket 3.8 20:11:41 19° SE 20:14:40 43° ENE 20:18:55 10° N
ISS -0.7 20:14:55 10° NW 20:16:44 14° NNW 20:18:35 10° NNE
Cosmos 921 Rocket 3.1 20:15:21 10° N 20:19:27 55° ENE 20:21:45 24° SE
USA 215 3.3 20:15:52 18° SE 20:20:58 87° SW 20:27:35 10° NW
NOSS 2-3 (D) 3.3 20:22:26 10° SW 20:26:06 74° NW 20:29:57 10° NNE
IRS-1A Rocket 4.3 20:22:02 17° SSE 20:26:28 85° ENE 20:32:15 10° NNW
Okean-O 3.4 20:22:45 10° S 20:26:58 48° W 20:31:15 10° NNW
Cosmos 494 Rocket 4.0 20:21:41 10° NNW 20:26:58 90° W 20:30:30 21° SSE
OAO 2 Rocket 4.4 20:24:51 10° W 20:29:25 31° SSW 20:31:31 23° SSE
Timation 2 Rocket 3.9 20:24:00 10° SSW 20:30:24 90° ESE 20:36:35 10° NNE
Cosmos 1125 Rocket 3.5 20:27:14 10° S 20:32:28 64° ESE 20:37:43 10° NNE
Geosat 4.1 20:28:53 10° NE 20:33:47 51° ESE 20:37:50 15° S
CZ-4C R/B 4.0 20:31:50 10° N 20:35:23 49° WNW 20:38:46 10° SSW
NOSS 3-1 (C) 3.8 20:37:12 26° ESE 20:37:29 27° ESE 20:41:51 10° NE
SPOT 3 Rocket 3.7 20:38:30 27° SE 20:41:11 59° ENE 20:46:19 10° N
USA 276 4.1 20:38:57 10° NNW 20:41:21 22° NNE 20:42:48 16° ENE
Cosmos 2366 rocket 4.5 20:45:59 28° SE 20:48:30 40° E 20:54:10 10° NNE
Landsat 4 4.0 20:49:58 39° E 20:50:17 40° ENE 20:53:31 10° N
In-Cosmos 22 Rocket 4.4 20:44:37 10° SSW 20:50:22 73° W 20:56:02 10° N
Hubble Space Telescope 3.0 20:50:58 10° SW 20:51:39 12° SSW 20:51:39 12° SSW
Terra 1.9 20:52:38 28° S 20:55:07 70° WSW 20:59:51 10° NNW
Nadezhda 3 Rocket 4.2 20:49:53 10° NNW 20:56:00 70° W 21:00:16 21° S
BREEZE-M DEB (TANK) 4.4 20:52:46 10° NW 20:56:04 52° NNE 21:03:14 16° ESE
Cosmos 1544 Rocket 3.9 20:53:00 10° N 20:57:12 48° E 20:58:03 41° ESE
SL-8 Rocket 4.1 20:55:33 30° SSE 20:58:36 57° E 21:04:45 10° NNE
Cosmos 1437 Rocket 2.6 21:07:19 59° E 21:07:19 59° E 21:10:47 10° NNE
ATLAS CENTAUR R/B 1.3 21:06:07 10° NW 21:10:09 73° WSW 21:10:52 57° S
Meteor 2-1 Rocket 4.4 21:10:52 10° NNW 21:16:25 65° W 21:18:58 32° SSW
Cosmos 1833 Rocket 2.9 21:11:02 10° NNW 21:16:37 58° ENE 21:18:22 41° ESE
Cosmos 44 3.6 21:12:39 10° SW 21:17:57 74° WNW 21:23:04 10° NNE
ERS-1 Rocket 4.3 21:18:03 19° SSW 21:20:55 34° W 21:25:27 10° NNW
Spot 2 Rocket 4.2 21:19:30 28° SSW 21:21:51 47° W 21:26:46 10° NNW
Spot 1 4.4 21:16:44 10° NNE 21:21:53 85° ESE 21:23:34 43° S
Orbus 7S? 3.7 21:19:24 10° NW 21:21:21 39° W 21:21:21 39° W
Cosmos 2218 Rocket 3.9 21:23:42 39° S 21:26:09 79° E 21:32:19 10° N
Cosmos 864 Rocket 4.4 21:24:18 37° S 21:27:00 83° E 21:33:15 10° N
Cosmos 220 Rocket 3.7 21:23:43 10° NNW 21:27:53 84° WSW 21:28:09 77° S
Cosmos 2082 Rocket 3.8 21:25:18 10° N 21:29:36 22° NE 21:31:39 18° E
Cosmos 2278 Rocket 2.2 21:31:13 51° SSE 21:32:13 60° ESE 21:37:48 10° NNE
Landsat 5 3.7 21:28:47 10° N 21:33:10 71° WNW 21:34:11 50° SW
MetOp-A 3.6 21:35:01 68° SSE 21:35:39 88° ENE 21:40:05 10° NNW
Cosmos 2298 Rocket 4.4 21:33:31 25° SW 21:36:37 63° WNW 21:41:55 10° NNE
Cosmos 2341 Rocket 4.2 21:33:38 27° SSW 21:37:09 67° W 21:43:28 10° N
Cosmos 1606 3.9 21:34:41 10° NNW 21:37:50 30° W 21:38:05 30° W
Cosmos 614 Rocket 3.8 21:38:57 10° NNW 21:44:01 72° ENE 21:44:35 65° ESE
H-2A R/B 4.5 21:44:33 16° ENE 21:44:33 16° ENE 21:46:36 10° NNE
CZ-2C R/B 3.9 21:41:58 10° NNE 21:46:20 59° E 21:46:20 59° E
Cosmos 1536 Rocket 3.7 21:47:10 60° WSW 21:47:35 64° W 21:51:53 10° N
Ariane Rocket 4.5 21:47:26 22° SW 21:49:21 28° W 21:53:42 10° NW
ISS -0.6 21:53:20 10° NNW 21:54:37 12° N 21:55:54 10° NNE
ARIANE 5 R/B 2.9 21:58:54 57° ENE 21:58:54 57° ENE 22:03:02 10° N
COSMOS 2406 4.5 21:54:27 10° N 21:59:23 29° ENE 22:00:48 26° E
ATLAS 3B R/B 2.8 22:01:27 52° SSE 22:02:36 58° ESE 22:09:56 10° NE
BREEZE-M DEB (TANK) 2.9 21:59:04 10° WNW 22:06:11 64° W 22:06:11 64° W
Cosmos 1269 Rocket 4.3 22:01:33 10° N 22:06:45 53° ENE 22:07:06 52° E
Cosmos 1727 Rocket 3.9 22:01:18 10° N 22:07:39 80° E 22:08:48 62° SSE
Cosmos 2228 4.2 22:04:17 10° NNW 22:07:59 32° W 22:08:06 31° W
Cosmos 1943 Rocket 2.0 22:08:20 72° SE 22:08:39 75° ESE 22:14:17 10° NNE
Cosmos 1821 Rocket 4.0 22:09:49 53° SSW 22:11:25 78° W 22:17:48 10° N
Cosmos 2058 4.2 22:19:04 32° NE 22:19:04 32° NE 22:21:35 10° NNE
ALOS 2 3.9 22:19:19 31° ENE 22:19:19 31° ENE 22:22:44 10° N
Spot 4 4.3 22:23:23 53° ENE 22:23:23 53° ENE 22:27:53 10° N
SeaSat 1 3.1 22:26:56 43° ENE 22:27:13 43° ENE 22:31:52 10° NNW
NOSS 3-1 (C) 4.3 22:24:27 16° WSW 22:27:54 37° NW 22:33:11 10° NNE
Cosmos 1812 4.4 22:34:36 10° N 22:36:28 29° NNW 22:36:28 29° NNW
Milstar 3 4.3 22:38:01 42° SSE 22:38:14 42° SSE 22:54:40 10° E
Cosmos 1892 Rocket 4.3 22:45:05 50° NW 22:45:05 50° NW 22:48:50 10° N
Cosmos 1140 Rocket 3.7 22:50:05 10° NNW 22:54:48 62° NE 22:54:48 62° NE
Cosmos 1833 Rocket 4.5 22:56:13 10° WNW 23:00:00 19° W 23:00:03 19° W
NOSS 3-1 (A) 4.0 23:03:57 35° W 23:05:14 42° NW 23:10:41 10° NNE
Cosmos-2242 4.2 23:03:03 10° N 23:05:51 37° NNE 23:05:51 37° NNE
Cosmos 2123 Rocket 3.9 23:01:10 10° N 23:07:27 75° W 23:07:51 72° SW
SL-19 R/B 4.5 23:05:05 10° NNE 23:11:49 85° WNW 23:12:29 73° SW
Cosmos 1656 Rocket 3.9 23:13:38 57° ENE 23:13:38 57° ENE 23:18:18 10° NNE
Cosmos 2082 Rocket 2.6 23:08:33 10° NNW 23:13:28 53° W 23:13:28 53° W
Cosmos 2278 Rocket 4.3 23:12:59 12° W 23:16:42 21° NW 23:20:56 10° N
Lacrosse 4 Rocket 3.8 23:20:40 15° ENE 23:20:40 15° ENE 23:21:33 10° NE
Cosmos 2369 Rocket 2.7 23:19:37 47° ENE 23:19:37 47° ENE 23:24:11 10° NNE
H-2A R/B 4.3 23:20:31 23° NW 23:20:31 23° NW 23:22:21 10° NNW
ULPM Upper Stage 4.0 23:18:14 10° NW 23:20:59 38° NNW 23:20:59 38° NNW
PSLV R/B 4.4 23:19:06 10° N 23:22:20 49° N 23:22:20 49° N
Iridium 4 Rocket 4.2 23:26:11 10° N 23:31:48 50° E 23:31:55 50° E
ISS -0.8 23:29:20 10° NW 23:30:11 15° NNW 23:30:11 15° NNW
USA 229 DEB 3.3 23:32:18 83° SW 23:32:35 88° NW 23:39:13 10° NE
USA 229 3.3 23:32:27 83° SW 23:32:42 89° WNW 23:39:20 10° NE
CZ-4C R/B 3.1 23:35:01 10° NNW 23:42:29 77° NE 23:45:35 44° SE
Meteor 2-2 Rocket 4.3 23:37:52 10° NNW 23:43:24 71° W 23:43:24 71° W
COSMOS 2406 4.1 23:38:29 10° NW 23:42:50 37° W 23:42:50 37° W
Cosmos 2221 3.9 23:43:51 10° N 23:46:52 34° NE 23:46:52 34° NE
Cosmos 1943 Rocket 4.4 23:49:48 11° W 23:52:59 17° NW 23:56:40 10° N
